This is the latest recevied weather packets stored in our database for station/object BV5AB-13. If no packets are shown the sender has not sent any weather packets the latest 1 day(s).
| Time | Temp. | Humidity | Pressure | Rain* | Wind** | Luminosity | Snow |
|---|---|---|---|---|---|---|---|
| 1778017023 | 21.11° C | 98% | 1003.6 hPa | 2.03 mm | 0.45 m/s, 150° | - | - |
| 1778016424 | 21.11° C | 98% | 1003.7 hPa | 3.56 mm | 0.45 m/s, 170° | - | - |
| 1778015825 | 21.11° C | 98% | 1003.7 hPa | 5.59 mm | 0 m/s | - | - |
| 1778015223 | 21.11° C | 98% | 1003.5 hPa | 5.59 mm | 0.45 m/s, 150° | - | - |
| 1778014625 | 21.11° C | 98% | 1003.5 hPa | 6.1 mm | 0.45 m/s, 140° | - | - |
| 1778014024 | 21.11° C | 98% | 1003.3 hPa | 7.11 mm | 0.45 m/s, 160° | - | - |
| 1778013424 | 21.11° C | 98% | 1003.2 hPa | 7.11 mm | 0.45 m/s, 140° | - | - |
| 1778012825 | 21.11° C | 98% | 1003.2 hPa | 6.6 mm | 0.45 m/s, 140° | - | - |
| 1778012223 | 21.11° C | 98% | 1003.1 hPa | 5.08 mm | 0 m/s | - | - |
| 1778011623 | 21.11° C | 98% | 1003.1 hPa | 5.08 mm | 0.45 m/s, 110° | - | - |
| 1778011024 | 21.11° C | 98% | 1003.1 hPa | 4.57 mm | 0 m/s | - | - |
| 1778010427 | 21.11° C | 98% | 1003 hPa | 4.06 mm | 0 m/s | - | - |
| 1778009824 | 21.11° C | 98% | 1002.9 hPa | 4.57 mm | 0 m/s | - | - |
| 1778009223 | 21.11° C | 98% | 1002.9 hPa | 5.08 mm | 0 m/s | - | - |
| 1778008624 | 21.11° C | 98% | 1002.9 hPa | 6.1 mm | 0 m/s | - | - |
| 1778008024 | 21.11° C | 98% | 1002.8 hPa | 5.59 mm | 0 m/s | - | - |
| 1778007426 | 21.11° C | 97% | 1003 hPa | 5.08 mm | 0 m/s | - | - |
| 1778006823 | 21.11° C | 97% | 1003.1 hPa | 4.06 mm | 0 m/s | - | - |
| 1778005623 | 21.11° C | 98% | 1003.2 hPa | 3.56 mm | 1.34 m/s, 260° | - | - |
| 1778005024 | 21.11° C | 98% | 1002.9 hPa | 2.54 mm | 0.89 m/s, 260° | - | - |
| 1778004425 | 21.11° C | 98% | 1002.8 hPa | 2.54 mm | 0.45 m/s, 260° | - | - |
| 1778003823 | 21.11° C | 98% | 1002.6 hPa | 2.54 mm | 0 m/s | - | - |
| 1778003223 | 21.11° C | 98% | 1002.8 hPa | 2.54 mm | 0 m/s | - | - |
| 1778002624 | 21.11° C | 97% | 1002.9 hPa | 2.03 mm | 0 m/s | - | - |
| 1778002023 | 21.11° C | 97% | 1003.1 hPa | 2.03 mm | 0 m/s | - | - |
* Rain latest hour (hover to see other rain measurements)
** Current wind speed in m/s (hover to see current wind gust speed)